Location: Barrio Las Umbrías
(40.4173°N, 4.8685°W)
Time: 14:08:23
(UTC+00:00)

Cosmos 332 Rocket - Pass Details

Date: 17 August 2022
Orbit: 681 x 702 km, 74.0° (Epoch: 27 September)

Event Time Altitude Azimuth Distance (km) Brightness Sun altitude
Rises 19:37:19 0° 337° (NNW) 3,092 7.9 -4.9°
Reaches altitude 10° 19:39:40 10° 335° (NNW) 2,168 7.1 -5.4°
Maximum altitude 19:44:30 65° 254° (WSW) 763 4.3 -6.2°
Drops below altitude 10° 19:49:17 10° 173° (S) 2,139 6.0 -7.0°
Sets 19:51:35 0° 170° (S) 3,048 6.8 -7.4°
